TimeCST,TemperatureF,Dew PointF,Humidity,Sea Level PressureIn,VisibilityMPH,Wind Direction,Wind SpeedMPH,Gust SpeedMPH,PrecipitationIn,Events,Conditions,WindDirDegrees,DateUTC
12:15 AM,30.0,20.3,67,30.40,10.0,Calm,Calm,-,N/A,,Overcast,0,2012-11-14 06:15:00
12:35 AM,29.8,20.1,67,30.40,10.0,Calm,Calm,-,N/A,,Overcast,0,2012-11-14 06:35:00
12:55 AM,30.2,20.1,66,30.40,10.0,Calm,Calm,-,N/A,,Overcast,0,2012-11-14 06:55:00
1:15 AM,30.0,20.3,67,30.39,10.0,Calm,Calm,-,N/A,,Overcast,0,2012-11-14 07:15:00
1:35 AM,30.2,20.1,66,30.39,10.0,Calm,Calm,-,N/A,,Overcast,0,2012-11-14 07:35:00
1:55 AM,30.6,20.3,66,30.39,10.0,Calm,Calm,-,N/A,,Overcast,0,2012-11-14 07:55:00
2:15 AM,30.7,20.3,65,30.39,10.0,Calm,Calm,-,N/A,,Overcast,0,2012-11-14 08:15:00
2:35 AM,30.9,20.3,65,30.40,10.0,Calm,Calm,-,N/A,,Overcast,0,2012-11-14 08:35:00
2:55 AM,30.7,20.3,65,30.38,10.0,Calm,Calm,-,N/A,,Overcast,0,2012-11-14 08:55:00
3:15 AM,30.7,20.3,65,30.38,10.0,Calm,Calm,-,N/A,,Overcast,0,2012-11-14 09:15:00
3:35 AM,30.9,20.8,66,30.37,10.0,Calm,Calm,-,N/A,,Mostly Cloudy,0,2012-11-14 09:35:00
3:55 AM,30.6,21.0,68,30.37,10.0,Calm,Calm,-,N/A,,Mostly Cloudy,0,2012-11-14 09:55:00
4:15 AM,30.6,21.0,68,30.37,10.0,Calm,Calm,-,N/A,,Scattered Clouds,0,2012-11-14 10:15:00
4:35 AM,30.7,21.0,67,30.36,10.0,Calm,Calm,-,N/A,,Scattered Clouds,0,2012-11-14 10:35:00
4:55 AM,30.4,21.2,69,30.36,10.0,Calm,Calm,-,N/A,,Clear,0,2012-11-14 10:55:00
5:15 AM,30.7,21.0,67,30.35,10.0,Calm,Calm,-,N/A,,Clear,0,2012-11-14 11:15:00
5:35 AM,31.1,20.7,65,30.35,10.0,Calm,Calm,-,N/A,,Clear,0,2012-11-14 11:35:00
5:55 AM,31.1,20.7,65,30.35,10.0,Calm,Calm,-,N/A,,Clear,0,2012-11-14 11:55:00
6:15 AM,31.5,21.0,65,30.35,10.0,Calm,Calm,-,N/A,,Clear,0,2012-11-14 12:15:00
6:35 AM,31.3,21.0,66,30.35,10.0,Calm,Calm,-,N/A,,Scattered Clouds,0,2012-11-14 12:35:00
6:55 AM,31.8,21.2,65,30.35,10.0,Calm,Calm,-,N/A,,Scattered Clouds,0,2012-11-14 12:55:00
7:15 AM,32.0,21.6,65,30.35,10.0,Calm,Calm,-,N/A,,Mostly Cloudy,0,2012-11-14 13:15:00
7:35 AM,32.0,22.1,67,30.36,10.0,Calm,Calm,-,N/A,,Overcast,0,2012-11-14 13:35:00
7:55 AM,32.0,22.1,67,30.34,10.0,Calm,Calm,-,N/A,,Overcast,0,2012-11-14 13:55:00
8:15 AM,32.4,22.5,67,30.35,10.0,Calm,Calm,-,N/A,,Overcast,0,2012-11-14 14:15:00
8:35 AM,33.1,22.8,66,30.35,10.0,Calm,Calm,-,N/A,,Overcast,0,2012-11-14 14:35:00
8:55 AM,33.6,23.0,65,30.35,10.0,Calm,Calm,-,N/A,,Overcast,0,2012-11-14 14:55:00
9:15 AM,34.9,23.4,63,30.35,10.0,Calm,Calm,-,N/A,,Scattered Clouds,0,2012-11-14 15:15:00
9:35 AM,36.0,23.7,61,30.35,10.0,Calm,Calm,-,N/A,,Clear,0,2012-11-14 15:35:00
9:55 AM,36.7,23.7,59,30.35,10.0,Calm,Calm,-,N/A,,Clear,0,2012-11-14 15:55:00
10:15 AM,37.6,24.4,59,30.35,10.0,Calm,Calm,-,N/A,,Clear,0,2012-11-14 16:15:00
10:35 AM,38.5,24.8,58,30.34,10.0,North,-9999.0,-,N/A,,Clear,0,2012-11-14 16:35:00
10:55 AM,40.5,25.3,55,30.33,10.0,South,10.4,-,N/A,,Clear,190,2012-11-14 16:55:00
11:15 AM,40.8,25.5,55,30.33,10.0,South,8.1,-,N/A,,Clear,170,2012-11-14 17:15:00
11:35 AM,41.0,25.7,55,30.32,10.0,South,10.4,-,N/A,,Scattered Clouds,170,2012-11-14 17:35:00
11:55 AM,41.0,25.7,55,30.31,10.0,SSW,10.4,-,N/A,,Clear,200,2012-11-14 17:55:00
12:15 PM,41.9,26.4,54,30.30,10.0,South,10.4,-,N/A,,Clear,190,2012-11-14 18:15:00
12:55 PM,44.8,27.1,50,30.29,10.0,South,8.1,-,N/A,,Clear,170,2012-11-14 18:55:00
1:15 PM,44.8,27.9,52,30.29,10.0,South,8.1,-,N/A,,Clear,170,2012-11-14 19:15:00
1:55 PM,45.7,27.5,49,30.28,10.0,South,9.2,-,N/A,,Clear,170,2012-11-14 19:55:00
2:15 PM,45.7,28.0,50,30.28,10.0,South,8.1,-,N/A,,Clear,180,2012-11-14 20:15:00
2:35 PM,46.4,28.4,50,30.27,10.0,South,12.7,-,N/A,,Clear,170,2012-11-14 20:35:00
2:55 PM,45.3,28.8,52,30.27,10.0,South,9.2,16.1,N/A,,Clear,170,2012-11-14 20:55:00
3:15 PM,44.8,28.8,53,30.27,10.0,South,9.2,16.1,N/A,,Clear,170,2012-11-14 21:15:00
3:35 PM,44.6,28.6,53,30.27,10.0,South,10.4,16.1,N/A,,Clear,170,2012-11-14 21:35:00
3:55 PM,43.7,28.4,55,30.27,10.0,South,9.2,-,N/A,,Clear,170,2012-11-14 21:55:00
4:15 PM,41.9,28.4,59,30.27,10.0,South,8.1,-,N/A,,Clear,170,2012-11-14 22:15:00
4:35 PM,41.0,27.9,60,30.27,10.0,South,6.9,-,N/A,,Clear,180,2012-11-14 22:35:00
4:55 PM,40.1,27.5,61,30.27,10.0,South,5.8,-,N/A,,Clear,170,2012-11-14 22:55:00
5:15 PM,39.6,27.9,63,30.27,10.0,South,5.8,-,N/A,,Clear,170,2012-11-14 23:15:00
5:35 PM,38.7,27.5,64,30.27,10.0,Calm,Calm,-,N/A,,Clear,0,2012-11-14 23:35:00
5:55 PM,37.4,27.5,67,30.27,10.0,South,5.8,-,N/A,,Clear,170,2012-11-14 23:55:00
6:15 PM,36.1,27.3,70,30.28,10.0,South,4.6,-,N/A,,Clear,180,2012-11-15 00:15:00
6:35 PM,36.0,27.3,71,30.28,10.0,South,6.9,-,N/A,,Clear,180,2012-11-15 00:35:00
6:55 PM,37.4,27.7,68,30.28,10.0,South,6.9,-,N/A,,Clear,170,2012-11-15 00:55:00
7:15 PM,37.6,27.5,67,30.28,10.0,South,8.1,-,N/A,,Clear,170,2012-11-15 01:15:00
7:35 PM,37.4,27.7,68,30.28,10.0,South,9.2,-,N/A,,Clear,180,2012-11-15 01:35:00
7:55 PM,37.6,28.0,68,30.28,10.0,South,8.1,-,N/A,,Clear,190,2012-11-15 01:55:00
8:35 PM,36.9,28.4,71,30.28,10.0,South,6.9,-,N/A,,Clear,190,2012-11-15 02:35:00
8:55 PM,36.9,28.4,71,30.27,10.0,South,9.2,-,N/A,,Clear,190,2012-11-15 02:55:00
9:15 PM,36.7,28.4,72,30.27,10.0,South,8.1,-,N/A,,Clear,190,2012-11-15 03:15:00
9:35 PM,36.5,28.8,74,30.27,10.0,South,9.2,-,N/A,,Clear,180,2012-11-15 03:35:00
9:55 PM,36.5,28.8,74,30.27,10.0,South,9.2,-,N/A,,Clear,190,2012-11-15 03:55:00
10:15 PM,36.3,28.8,74,30.27,10.0,South,8.1,-,N/A,,Clear,190,2012-11-15 04:15:00
10:35 PM,35.6,28.8,76,30.27,10.0,South,8.1,-,N/A,,Clear,190,2012-11-15 04:35:00
10:55 PM,35.6,28.4,75,30.27,10.0,South,8.1,-,N/A,,Clear,190,2012-11-15 04:55:00
11:15 PM,35.1,28.4,77,30.27,10.0,South,6.9,-,N/A,,Clear,190,2012-11-15 05:15:00
11:35 PM,34.9,28.4,77,30.27,10.0,South,6.9,-,N/A,,Clear,190,2012-11-15 05:35:00
11:55 PM,34.7,28.4,78,30.26,10.0,South,5.8,-,N/A,,Clear,190,2012-11-15 05:55:00